Location: Wien
(48.2082°N, 16.3738°E)
Time: 11:55:25
(UTC+02:00)

Tiros 1 despin weight - Pass Details

Date: 17 September 2024
Orbit: 573 x 615 km, 48.2° (Epoch: 06 October)

Event Time Altitude Azimuth Distance (km) Brightness Sun altitude
Rises 02:43:50 0° 207° (SSW) 2,849 - -33.8°
Reaches altitude 10° 02:46:31 10° 191° (SSW) 1,957 - -33.5°
Maximum altitude 02:49:56 21° 142° (SE) 1,370 - -33.2°
Exits shadow 02:53:01 12° 96° (E) 1,876 ? -32.9°
Drops below altitude 10° 02:53:23 10° 93° (E) 1,978 ? -32.9°
Sets 02:56:07 0° 78° (ENE) 2,890 ? -32.6°
